Weather History for Wooster, OH

Change the Weather History Date:

Monday, January 14, 2013

  Actual Average Record
Temperature  
Mean Temperature 31 °F -  
Max Temperature 37 °F 29 °F 46 °F (2006)
Min Temperature 24 °F 15 °F -2 °F (2009)
Degree Days  
Heating Degree Days 34    
Moisture  
Dew Point 23 °F    
Average Humidity 78    
Maximum Humidity 89    
Minimum Humidity 69    
Precipitation  
Precipitation 0.00 in - - ()
Sea Level Pressure  
Sea Level Pressure 30.31 in    
Wind  
Wind Speed 10 mph (NNW)    
Max Wind Speed 16 mph    
Max Gust Speed 21 mph    
Visibility 10 miles    
Events Rain    
Averages and records for this station are not official NWS values.
T = Trace of Precipitation, MM = Missing Value Source: NWS Daily Summary

Daily Weather History Graph

Daily Weather History Graph

Search for Another Location

Airport:

Trip Planner

Search our weather history database for the weather conditions in past years. The results will help you decide how hot, cold, wet, or windy it might be!

Date:

Astronomy

Jan. 14, 2013 Rise Set
Actual Time 7:50 AM EST 5:23 PM EST
Civil Twilight 7:19 AM EST 5:53 PM EST
Nautical Twilight 6:46 AM EST 6:27 PM EST
Astronomical Twilight 6:13 AM EST 7:00 PM EST
Moon 9:21 AM EST (1/14) 9:09 PM EST (1/14)
Length of Visible Light 10h 33m
Length of Day
9h 33m
Waxing Crescent, 11% of the Moon is Illuminated
Jan 14
Waxing Crescent
Jan 18
First Quarter
Jan 26
Full
Feb 3
Last Quarter
Feb 10
New

Hourly Weather History & Observations

Time (EST) Temp. Windchill Dew Point Humidity Pressure Visibility Wind Dir Wind Speed Gust Speed Precip Events Conditions
12:56 AM 37.9 °F 29.6 °F 35.1 °F 89% 30.05 in 10.0 mi NW 13.8 mph - 0.00 in Rain Light Rain
1:56 AM 37.0 °F 29.8 °F 34.0 °F 89% 30.08 in 10.0 mi WNW 10.4 mph - 0.00 in   Overcast
2:56 AM 36.0 °F 26.3 °F 32.0 °F 86% 30.13 in 10.0 mi WNW 16.1 mph 20.7 mph N/A   Overcast
3:56 AM 34.0 °F 24.6 °F 30.0 °F 85% 30.17 in 10.0 mi West 13.8 mph - N/A   Overcast
4:56 AM 30.9 °F 19.8 °F 26.1 °F 82% 30.19 in 10.0 mi West 16.1 mph - N/A   Overcast
5:56 AM 30.0 °F 20.0 °F 24.1 °F 79% 30.22 in 10.0 mi WNW 12.7 mph - N/A   Overcast
6:56 AM 30.0 °F 20.5 °F 24.1 °F 79% 30.27 in 10.0 mi NW 11.5 mph - N/A   Overcast
7:56 AM 28.0 °F 18.6 °F 23.0 °F 81% 30.31 in 9.0 mi NNW 10.4 mph - N/A   Overcast
8:56 AM 27.0 °F 18.7 °F 21.9 °F 81% 30.36 in 9.0 mi WNW 8.1 mph - N/A   Overcast
9:56 AM 27.0 °F 17.3 °F 19.9 °F 75% 30.38 in 10.0 mi NW 10.4 mph - N/A   Overcast
10:56 AM 27.0 °F 19.5 °F 21.0 °F 78% 30.39 in 10.0 mi WNW 6.9 mph - N/A   Overcast
11:56 AM 28.0 °F 21.7 °F 21.0 °F 75% 30.38 in 10.0 mi WNW 5.8 mph - N/A   Overcast
12:56 PM 28.0 °F 22.8 °F 21.0 °F 75% 30.34 in 10.0 mi North 4.6 mph - N/A   Overcast
1:53 PM 28.4 °F 19.7 °F 19.4 °F 69% 30.30 in 10.0 mi North 9.2 mph - N/A   Scattered Clouds
2:14 PM 28.4 °F 22.2 °F 21.2 °F 74% 30.30 in 10.0 mi NW 5.8 mph - N/A   Mostly Cloudy
2:56 PM 28.9 °F 21.9 °F 21.0 °F 72% 30.36 in 10.0 mi NNW 6.9 mph - N/A   Mostly Cloudy
3:56 PM 28.0 °F 19.3 °F 19.9 °F 72% 30.38 in 10.0 mi NNW 9.2 mph - N/A   Mostly Cloudy
4:56 PM 28.0 °F 19.3 °F 21.0 °F 75% 30.38 in 10.0 mi NNW 9.2 mph - N/A   Mostly Cloudy
5:56 PM 27.0 °F 18.7 °F 21.0 °F 78% 30.44 in 10.0 mi NNW 8.1 mph - N/A   Overcast
6:56 PM 27.0 °F 21.6 °F 19.9 °F 75% 30.39 in 10.0 mi NNE 4.6 mph - N/A   Mostly Cloudy
7:56 PM 27.0 °F 18.7 °F 19.9 °F 75% 30.43 in 10.0 mi North 8.1 mph - N/A   Overcast
8:45 PM 26.6 °F 21.2 °F 19.4 °F 74% 30.36 in 10.0 mi NNE 4.6 mph - N/A   Overcast
8:56 PM 26.1 °F 21.9 °F 19.0 °F 75% 30.41 in 10.0 mi NE 3.5 mph - N/A   Overcast
9:56 PM 26.1 °F 21.9 °F 19.9 °F 78% 30.38 in 10.0 mi NE 3.5 mph - N/A   Overcast
10:56 PM 25.0 °F 18.1 °F 19.0 °F 78% 30.37 in 10.0 mi North 5.8 mph - N/A   Partly Cloudy
11:56 PM 24.1 °F 16.0 °F 19.9 °F 84% 30.38 in 9.0 mi North 6.9 mph - N/A   Scattered Clouds